Location: Alma
(34.4195°N, 97.6123°W)
Time: 14:45:27
(UTC+00:00)

ISS - Visible Passes

Search period start: 01 December 2022 00:00
Search period end: 11 December 2022 00:00
Orbit: 414 x 421 km, 51.6° (Epoch: 01 December)

Date Brightness Start Highest point End Pass type
(mag) Time Alt. Az. Time Alt. Az. Time Alt. Az.
04 Dec -1.9 00:40:16 10° NNW 00:41:51 18° N 00:41:51 18° N visible
04 Dec -1.7 23:52:31 10° N 23:54:16 13° NNE 23:56:00 10° ENE visible
05 Dec -1.2 01:28:02 10° NW 01:29:00 18° NW 01:29:00 18° NW visible
06 Dec -3.7 00:39:37 10° NW 00:42:53 54° NE 00:43:27 47° E visible
06 Dec -2.9 23:51:17 10° NNW 23:54:17 30° NE 23:57:16 10° E visible
07 Dec -1.4 01:28:17 10° WNW 01:30:52 21° SW 01:31:13 21° SW visible
08 Dec -2.4 00:39:11 10° WNW 00:42:21 40° SW 00:45:30 10° SSE visible
08 Dec -3.7 23:50:20 10° NW 23:53:41 85° SW 23:57:00 10° SE visible
10 Dec -0.4 00:39:44 10° W 00:41:14 12° SW 00:42:43 10° SSW visible
10 Dec -1.0 23:49:45 10° WNW 23:52:30 24° SW 23:55:14 10° S visible
